Meteo Giornale » Osservazioni meteo Repubblica Ceca » Praha-Ruzyne

ore: 02:30 - Osservazioni Meteo Praha-Ruzyne
Lat. 50° 6' N Lon. 14° 15' E Alt. 365 metri s.l.m.

sereno Europe/Prague

-3 °C

Sereno

Temp. 24 Ore

-3 °C

2 °C

Sud-Ovest

9.3 Km/h

Dew point -6 °C

Umidità 79 %

Visibilità  10 Km

Il sole sorge alle ore 06:33

Il sole tramonta alle ore 17:54

Data e Ora Cielo e Fenomeni T °C DP °C Um. % Pres. hPa Vis. km Vento km/h
Oggi h: 02:30 sereno Sereno -3 -6 79 1030 10 SO 9.3
Oggi h: 02:00 sereno Sereno -3 -6 79 1030 10 SO 9.3
Oggi h: 01:30 sereno Sereno -3 -5 86 1030 10 SO 9.3
Oggi h: 01:00 sereno Sereno -3 -5 86 1030 10 SO 9.3
Oggi h: 00:30 sereno Sereno -2 -5 79 1030 10 O/SO 11.1
Oggi h: 00:00 sereno Sereno -3 -5 86 1030 10 O 9.3
Ieri h: 23:30 sereno Sereno -3 -5 86 1030 10 O/SO 9.3
Ieri h: 23:00 sereno Sereno -3 -5 86 1029 10 N 5.5
Ieri h: 22:00 sereno Sereno -2 -5 79 1029 10 O 7.4
Ieri h: 21:30 sereno Sereno -2 -5 79 1029 10 O 7.4
Ieri h: 19:30 sereno Sereno -1 -5 74 1027 10 O 7.4
Ieri h: 19:00 sereno Sereno -1 -6 68 1027 10 O/NO 7.4
Ieri h: 18:30 sereno Sereno -1 -5 74 1026 10 NO 7.4
Ieri h: 18:00 poco_nuvoloso Poco Nuvoloso -0 -5 68 1026 10 NO 7.4
Ieri h: 17:30 poco_nuvoloso Poco Nuvoloso 1 -7 55 1025 10 N 9.3
Ieri h: 17:00 poco_nuvoloso Poco Nuvoloso 1 -8 50 1025 10 N 16.7
Ieri h: 16:30 poco_nuvoloso Poco Nuvoloso 1 -8 50 1025 10 N 18.5
Ieri h: 16:00 nuvoloso Nuvoloso 1 -7 55 1024 10 N 18.5
Ieri h: 15:30 nuvoloso Nuvoloso 2 -7 51 1024 10 N 25.9
Ieri h: 15:00 nuvoloso Nuvoloso 1 -8 50 1024 10 N 22.2
Ieri h: 14:30 nuvoloso Nuvoloso 1 -7 55 1023 10 N 24
Ieri h: 14:00 nuvoloso Nuvoloso 2 -6 55 1023 10 N 25.9
Ieri h: 12:35 molto_nuvoloso Rovescio nelle Vicinanze 1 -3 74 1022 10 N 22.2
Ieri h: 12:30 molto_nuvoloso Rovescio nelle Vicinanze 1 -2 80 1022 10 N 22.2
Ieri h: 12:00 molto_nuvoloso Molto Nuvoloso 1 -2 80 1021 10 N 20.3
Ieri h: 11:30 coperto_neve Neve Debole 1 -2 80 1021 10 N 20.3
Ieri h: 11:23 coperto_neve Neve Debole 1 -2 80 1021 10 N 20.3
Ieri h: 10:30 molto_nuvoloso Molto Nuvoloso 1 -1 86 1020 10 N 20.3
Ieri h: 10:15 coperto_neve Neve Debole 1 -1 86 1020 10 N 24
Ieri h: 10:00 coperto_neve Neve Debole 0 -1 92 1020 10 N 24
Ieri h: 09:46 coperto_neve Neve Debole 0 -1 92 1020 6 N 24
Ieri h: 09:30 coperto_neve Neve Debole 0 -0 100 1019 10 N/NO 22.2
Ieri h: 08:51 coperto_neve Neve 0 -0 100 1019 2 N/NO 16.7
Ieri h: 08:39 coperto_neve Neve 0 -0 100 1019 2 N/NO 18.5
Ieri h: 08:30 coperto_neve Neve 0 -0 100 1018 1 N/NO 18.5
Ieri h: 07:55 coperto_neve Neve 0 -0 100 1018 2 NO 14.8
Ieri h: 07:47 coperto_neve Neve 1 -0 93 1018 3 NO 14.8
Ieri h: 07:38 coperto_neve Neve 1 -0 93 1018 5 N/NO 14.8
Ieri h: 07:30 coperto_neve Neve Debole 1 -0 93 1017 10 N/NO 14.8
Ieri h: 07:19 molto_nuvoloso Molto Nuvoloso 1 -0 93 1017 10 NO 14.8
Ieri h: 07:00 coperto Coperto 1 -0 93 1017 10 NO 16.7
Ieri h: 06:00 coperto Coperto 0 -0 100 1016 10 NO 11.1
Ieri h: 04:30 coperto_neve Neve Debole 0 -0 100 1015 6 N 18.5
Ieri h: 04:23 coperto_neve Neve Debole 0 -0 100 1015 5 N 16.7
Ieri h: 04:16 coperto_neve Neve Debole 0 -1 92 1015 5 N 16.7
Ieri h: 04:00 coperto_neve Neve Debole 0 -1 92 1015 5 N 18.5
Ieri h: 02:37 coperto_neve Neve Debole 1 -0 93 1014 5 N 18.5